| time (UTC) | temp F | wind direction | speed MPH | gust MPH | rain 1hr in | rain 24hr in | rain mn in | humidity % | barometer mb |
| 20260506073006 | 50 | 319 | 2.0 | 4.0 | 0.01 | 0.56 | 0.14 | 96 | 1002.8 |
| 20260506071505 | 50 | 319 | 1.0 | 4.0 | 0.02 | 0.56 | 0.14 | 96 | 1002.8 |
| 20260506061558 | 50 | 320 | 0.0 | 4.0 | 0.02 | 0.54 | 0.13 | 96 | 1002.5 |
| 20260506044549 | 50 | 320 | 0.0 | 4.0 | 0.01 | 0.53 | 0.11 | 96 | 1002.5 |
| 20260506043046 | 50 | 320 | 0.0 | 1.0 | 0.01 | 0.53 | 0.11 | 96 | 1002.5 |
| 20260506041550 | 50 | 320 | 0.0 | 2.0 | 0.01 | 0.53 | 0.11 | 96 | 1002.5 |
| 20260506040048 | 50 | 320 | 0.0 | 1.0 | 0.02 | 0.53 | 0.11 | 96 | 1002.6 |
| 20260506034545 | 50 | 320 | 0.0 | 0.0 | 0.02 | 0.52 | 0.10 | 96 | 1002.6 |
| 20260506033045 | 50 | 320 | 0.0 | 2.0 | 0.02 | 0.52 | 0.10 | 95 | 1002.6 |
| 20260506031543 | 50 | 320 | 0.0 | 2.0 | 0.03 | 0.52 | 0.10 | 95 | 1002.5 |
| 20260506030057 | 50 | 320 | 0.0 | 0.0 | 0.04 | 0.51 | 0.09 | 95 | 1002.5 |
| 20260506024551 | 50 | 320 | 0.0 | 0.0 | 0.03 | 0.50 | 0.09 | 95 | 1002.9 |
| 20260506023036 | 50 | 320 | 0.0 | 2.0 | 0.02 | 0.50 | 0.08 | 95 | 1003.0 |
| 20260506021536 | 50 | 320 | 0.0 | 2.0 | 0.02 | 0.49 | 0.07 | 95 | 1003.1 |
| 20260506020034 | 50 | 320 | 0.0 | 2.0 | 0.00 | 0.47 | 0.06 | 95 | 1003.2 |
| 20260506014543 | 50 | 320 | 0.0 | 2.0 | 0.01 | 0.47 | 0.06 | 95 | 1003.3 |
| 20260506013032 | 50 | 320 | 0.0 | 2.0 | 0.01 | 0.47 | 0.06 | 95 | 1003.4 |
| 20260506011537 | 50 | 320 | 0.0 | 1.0 | 0.01 | 0.47 | 0.06 | 95 | 1003.4 |
| 20260506010029 | 50 | 320 | 0.0 | 3.0 | 0.01 | 0.47 | 0.06 | 95 | 1003.4 |
| 20260506004543 | 50 | 320 | 0.0 | 2.0 | 0.00 | 0.46 | 0.05 | 95 | 1003.5 |
| 20260506003033 | 50 | 320 | 0.0 | 1.0 | 0.01 | 0.46 | 0.05 | 95 | 1003.5 |
| 20260506001526 | 50 | 320 | 0.0 | 2.0 | 0.01 | 0.46 | 0.05 | 95 | 1003.7 |
| 20260506000025 | 51 | 320 | 0.0 | 1.0 | 0.02 | 0.46 | 0.05 | 95 | 1003.9 |
| 20260505234522 | 51 | 320 | 0.0 | 1.0 | 0.02 | 0.46 | 0.05 | 95 | 1004.0 |
| 20260505233021 | 51 | 320 | 0.0 | 0.0 | 0.02 | 0.46 | 0.04 | 95 | 1004.1 |
| 20260505231525 | 51 | 320 | 0.0 | 1.0 | 0.02 | 0.46 | 0.04 | 95 | 1004.1 |
| 20260505230021 | 51 | 320 | 0.0 | 3.0 | 0.03 | 0.45 | 0.03 | 95 | 1004.2 |
| 20260505224517 | 51 | 320 | 0.0 | 2.0 | 0.04 | 0.45 | 0.03 | 95 | 1004.2 |
| 20260505223015 | 51 | 320 | 0.0 | 1.0 | 0.04 | 0.44 | 0.02 | 95 | 1004.3 |
| 20260505221518 | 51 | 320 | 0.0 | 2.0 | 0.03 | 0.43 | 0.01 | 95 | 1004.3 |
| 20260505220013 | 52 | 321 | 0.0 | 3.0 | 0.04 | 0.42 | 0.00 | 95 | 1004.4 |
| 20260505214513 | 52 | 321 | 0.0 | 1.0 | 0.04 | 0.41 | 0.41 | 94 | 1004.4 |
| 20260505213011 | 52 | 321 | 0.0 | 4.0 | 0.05 | 0.40 | 0.40 | 94 | 1004.5 |
| 20260505211510 | 52 | 312 | 0.0 | 4.0 | 0.05 | 0.39 | 0.39 | 94 | 1004.5 |
| 20260505210009 | 52 | 313 | 0.0 | 4.0 | 0.06 | 0.38 | 0.38 | 94 | 1004.6 |
| 20260505204508 | 52 | 313 | 0.0 | 4.0 | 0.06 | 0.37 | 0.37 | 94 | 1004.6 |
| 20260505203021 | 52 | 313 | 0.0 | 4.0 | 0.07 | 0.35 | 0.35 | 94 | 1004.6 |
| 20260505201506 | 53 | 313 | 0.0 | 3.0 | 0.08 | 0.35 | 0.35 | 94 | 1004.6 |
| 20260505200005 | 53 | 314 | 0.0 | 5.0 | 0.07 | 0.32 | 0.32 | 94 | 1004.5 |
| 20260505194503 | 53 | 319 | 0.0 | 5.0 | 0.08 | 0.31 | 0.31 | 94 | 1004.4 |
| 20260505193002 | 53 | 320 | 0.0 | 4.0 | 0.08 | 0.28 | 0.28 | 94 | 1004.3 |
| 20260505191503 | 53 | 319 | 0.0 | 2.0 | 0.09 | 0.27 | 0.27 | 93 | 1004.2 |
| 20260505190100 | 53 | 319 | 0.0 | 3.0 | 0.09 | 0.25 | 0.25 | 93 | 1004.2 |
| 20260505184603 | 54 | 319 | 0.0 | 3.0 | 0.08 | 0.23 | 0.23 | 93 | 1004.2 |
| 20260505183057 | 54 | 322 | 0.0 | 4.0 | 0.06 | 0.20 | 0.20 | 93 | 1004.2 |
| 20260505181556 | 54 | 331 | 0.0 | 3.0 | 0.06 | 0.18 | 0.18 | 92 | 1004.2 |
| 20260505180055 | 55 | 331 | 1.0 | 5.0 | 0.06 | 0.17 | 0.17 | 92 | 1004.2 |
| 20260505174554 | 55 | 333 | 0.0 | 4.0 | 0.06 | 0.16 | 0.15 | 92 | 1004.2 |
| 20260505173053 | 55 | 336 | 0.0 | 3.0 | 0.06 | 0.14 | 0.13 | 91 | 1004.3 |
| 20260505171553 | 56 | 295 | 0.0 | 5.0 | 0.07 | 0.13 | 0.12 | 91 | 1004.2 |
| 20260505170053 | 56 | 327 | 0.0 | 3.0 | 0.07 | 0.11 | 0.10 | 91 | 1004.2 |
| 20260505164551 | 57 | 328 | 0.0 | 4.0 | 0.06 | 0.10 | 0.08 | 91 | 1004.2 |
| 20260505163049 | 57 | 329 | 0.0 | 4.0 | 0.07 | 0.09 | 0.07 | 90 | 1004.3 |
| 20260505161550 | 58 | 328 | 1.0 | 5.0 | 0.05 | 0.07 | 0.05 | 90 | 1004.4 |
| 20260505153048 | 59 | 315 | 1.0 | 5.0 | 0.00 | 0.05 | 0.00 | 87 | 1004.6 |
| 20260505151543 | 59 | 311 | 0.0 | 2.0 | 0.00 | 0.05 | 0.00 | 86 | 1004.6 |
| 20260505124533 | 61 | 40 | 2.0 | 5.0 | 0.00 | 0.17 | 0.00 | 82 | 1005.4 |
| 20260505123042 | 61 | 36 | 1.0 | 4.0 | 0.00 | 0.17 | 0.00 | 81 | 1005.5 |
| 20260505121533 | 62 | 36 | 2.0 | 5.0 | 0.00 | 0.17 | 0.00 | 81 | 1005.4 |
| 20260505120040 | 61 | 35 | 2.0 | 5.0 | 0.00 | 0.17 | 0.00 | 81 | 1005.6 |
| 20260505114528 | 62 | 40 | 3.0 | 7.0 | 0.00 | 0.17 | 0.00 | 81 | 1005.7 |
| 20260505113027 | 62 | 42 | 3.0 | 6.0 | 0.00 | 0.17 | 0.00 | 82 | 1005.8 |
| 20260505111530 | 62 | 49 | 2.0 | 6.0 | 0.00 | 0.17 | 0.00 | 82 | 1005.8 |
| 20260505101524 | 61 | 94 | 2.0 | 4.0 | 0.00 | 0.17 | 0.00 | 84 | 1006.2 |
| 20260505100028 | 61 | 109 | 0.0 | 3.0 | 0.00 | 0.17 | 0.00 | 83 | 1006.2 |
| 20260505094520 | 61 | 109 | 2.0 | 4.0 | 0.00 | 0.17 | 0.00 | 83 | 1006.3 |
| 20260505093018 | 61 | 115 | 2.0 | 4.0 | 0.00 | 0.17 | 0.00 | 82 | 1006.4 |
| 20260505091520 | 62 | 156 | 1.0 | 5.0 | 0.00 | 0.17 | 0.00 | 82 | 1006.4 |
| 20260505090017 | 62 | 163 | 1.0 | 3.0 | 0.00 | 0.17 | 0.00 | 80 | 1006.5 |
| 20260505084513 | 61 | 163 | 1.0 | 2.0 | 0.00 | 0.17 | 0.00 | 83 | 1006.5 |
| 20260505083017 | 60 | 163 | 1.0 | 5.0 | 0.00 | 0.17 | 0.00 | 86 | 1006.5 |
| 20260505081504 | 59 | 163 | 0.0 | 1.0 | 0.00 | 0.17 | 0.00 | 90 | 1006.6 |